EW3429 Weather Reports


time (UTC)temp
C
wind
direction
speed
KPH
gust
KPH
rain 1hr
cm
rain 24hr
cm
rain mn
cm
humidity
%
barometer
mb
20260504204923 11 286 0.0 0.0 0.00 0.00 0.00 53 1016.2
20260504203408 12 286 0.0 0.0 0.00 0.00 0.00 53 1016.3
20260504202410 12 286 0.0 0.0 0.00 0.00 0.00 51 1016.1
20260504201856 12 286 0.0 0.0 0.00 0.00 0.00 50 1016.2
20260504201357 12 286 0.0 0.0 0.00 0.00 0.00 49 1016.0
20260504200857 13 286 0.0 0.0 0.00 0.00 0.00 48 1016.1
20260504200357 13 286 0.0 0.0 0.00 0.00 0.00 48 1016.1
20260504195357 13 286 0.0 0.0 0.00 0.00 0.00 47 1016.2
20260504194856 13 286 0.0 0.0 0.00 0.00 0.00 47 1016.2
20260504194358 13 286 0.0 0.0 0.00 0.00 0.00 46 1016.3
20260504193857 13 286 0.0 0.0 0.00 0.00 0.00 46 1016.1
20260504193356 14 286 0.0 0.0 0.00 0.00 0.00 45 1016.2
20260504192856 14 286 0.0 0.0 0.00 0.00 0.00 45 1016.2
20260504192356 14 286 0.0 0.0 0.00 0.00 0.00 44 1016.1
20260504191856 15 287 0.0 0.0 0.00 0.00 0.00 43 1016.2
20260504191356 15 287 0.0 0.0 0.00 0.00 0.00 43 1016.3
20260504190856 15 287 0.0 0.0 0.00 0.00 0.00 43 1016.2
20260504190357 15 286 0.0 0.0 0.00 0.00 0.00 42 1016.1
20260504185856 15 286 0.0 0.0 0.00 0.00 0.00 42 1015.9
20260504185356 16 286 0.0 0.0 0.00 0.00 0.00 41 1016.2
20260504184856 16 286 0.0 0.0 0.00 0.00 0.00 41 1015.9
20260504184359 16 287 0.0 0.0 0.00 0.00 0.00 40 1015.9
20260504183856 16 287 0.0 0.0 0.00 0.00 0.00 39 1016.1
20260504183356 17 287 0.0 0.0 0.00 0.00 0.00 39 1015.8
20260504182856 17 286 0.0 0.0 0.00 0.00 0.00 39 1015.7
20260504182356 17 286 0.0 0.0 0.00 0.00 0.00 38 1016.0
20260504181857 17 286 0.0 0.0 0.00 0.00 0.00 38 1015.8
20260504181359 18 287 0.0 0.0 0.00 0.00 0.00 37 1015.6
20260504180858 18 287 0.0 0.0 0.00 0.00 0.00 36 1015.7
20260504180357 18 286 0.0 0.0 0.00 0.00 0.00 36 1015.7
20260504175856 19 286 0.0 0.0 0.00 0.00 0.00 36 1015.6
20260504175357 19 286 0.0 0.0 0.00 0.00 0.00 34 1015.8
20260504174356 20 286 0.0 1.6 0.00 0.00 0.00 34 1015.6
20260504173847 20 221 0.0 3.2 0.00 0.00 0.00 32 1015.7
20260504173349 21 217 1.6 3.2 0.00 0.00 0.00 31 1015.6
20260504172846 21 247 0.0 1.6 0.00 0.00 0.00 31 1015.8
20260504172348 22 247 0.0 3.2 0.00 0.00 0.00 30 1015.5
20260504171850 22 250 0.0 4.8 0.00 0.00 0.00 29 1015.4
20260504171348 23 108 0.0 4.8 0.00 0.00 0.00 28 1015.5
20260504170850 23 202 0.0 11.3 0.00 0.00 0.00 26 1015.5
20260504170351 23 150 1.6 11.3 0.00 0.00 0.00 25 1015.6
20260504150819 26 169 4.8 14.5 0.00 0.00 0.00 22 1016.2
20260504150318 26 80 3.2 14.5 0.00 0.00 0.00 23 1016.1
20260504141317 26 168 11.3 16.1 0.00 0.00 0.00 22 1016.4
20260504140820 26 210 6.4 12.9 0.00 0.00 0.00 21 1016.5
20260504140316 26 270 3.2 14.5 0.00 0.00 0.00 20 1016.5
20260504130818 26 227 8.0 17.7 0.00 0.00 0.00 21 1017.1
20260504130317 26 179 4.8 17.7 0.00 0.00 0.00 21 1017.1
20260504120254 25 226 6.4 20.9 0.00 0.00 0.00 25 1017.9
20260504110256 24 226 9.7 27.4 0.00 0.00 0.00 26 1018.4
20260504100253 23 101 4.8 17.7 0.00 0.00 0.00 28 1019.4
20260504081253 21 170 8.0 17.7 0.00 0.00 0.00 30 1020.2
20260504080251 20 124 3.2 17.7 0.00 0.00 0.00 29 1020.4
20260504060239 14 214 1.6 4.8 0.00 0.00 0.00 55 1020.5
20260504050726 11 79 0.0 1.6 0.00 0.00 0.00 69 1020.8
20260504050225 10 229 0.0 0.0 0.00 0.00 0.00 74 1020.8
20260504045724 9 229 0.0 0.0 0.00 0.00 0.00 77 1020.6
20260504045225 8 229 0.0 0.0 0.00 0.00 0.00 79 1020.6
20260504044726 7 229 0.0 0.0 0.00 0.00 0.00 83 1020.4
20260504043713 6 229 0.0 0.0 0.00 0.00 0.00 86 1020.4
20260504042714 5 229 0.0 0.0 0.00 0.00 0.00 85 1020.5
20260504041714 4 229 0.0 0.0 0.00 0.00 0.00 84 1020.3
20260504040713 4 229 0.0 0.0 0.00 0.00 0.00 84 1020.8
20260504040212 4 229 0.0 0.0 0.00 0.00 0.00 83 1020.1
20260504035215 4 229 0.0 0.0 0.00 0.00 0.00 83 1020.1
20260504034700 4 229 0.0 0.0 0.00 0.00 0.00 83 1020.1
20260504033702 4 229 0.0 0.0 0.00 0.00 0.00 83 1020.1
20260504032702 4 229 0.0 0.0 0.00 0.00 0.00 82 1020.1
20260504032149 4 229 0.0 0.0 0.00 0.00 0.00 82 1020.2
20260504031649 4 229 0.0 0.0 0.00 0.00 0.00 82 1020.0
20260504031150 4 229 0.0 0.0 0.00 0.00 0.00 82 1020.2
20260504030649 4 229 0.0 0.0 0.00 0.00 0.00 82 1019.9
20260504030150 4 229 0.0 0.0 0.00 0.00 0.00 81 1020.0
20260504025655 4 229 0.0 0.0 0.00 0.00 0.00 81 1019.9
20260504025149 4 229 0.0 0.0 0.00 0.00 0.00 81 1020.2
20260504024650 4 229 0.0 0.0 0.00 0.00 0.00 81 1020.1
20260504024151 4 229 0.0 0.0 0.00 0.00 0.00 81 1020.1
20260504023652 4 229 0.0 0.0 0.00 0.00 0.00 80 1019.6
20260504023150 4 229 0.0 0.0 0.00 0.00 0.00 80 1019.9
20260504022650 4 229 0.0 0.0 0.00 0.00 0.00 80 1019.8
20260504022151 4 229 0.0 0.0 0.00 0.00 0.00 80 1019.6
20260504021652 5 229 0.0 0.0 0.00 0.00 0.00 80 1019.9
20260504020650 5 229 0.0 0.0 0.00 0.00 0.00 80 1019.8
20260504015651 5 229 0.0 0.0 0.00 0.00 0.00 79 1019.9
20260504014651 5 229 0.0 0.0 0.00 0.00 0.00 79 1020.0
20260504013650 5 229 0.0 0.0 0.00 0.00 0.00 78 1019.9
20260504013150 5 229 0.0 0.0 0.00 0.00 0.00 78 1020.0
20260504012651 5 229 0.0 0.0 0.00 0.00 0.00 78 1019.8
20260504012149 5 229 0.0 0.0 0.00 0.00 0.00 78 1019.9
20260504011204 5 229 0.0 0.0 0.00 0.00 0.00 78 1020.1
20260504010138 5 229 0.0 0.0 0.00 0.00 0.00 78 1020.0
20260504005639 5 229 0.0 0.0 0.00 0.00 0.00 78 1019.7
20260504005138 5 229 0.0 0.0 0.00 0.00 0.00 77 1019.8
20260504004637 5 229 0.0 0.0 0.00 0.00 0.00 76 1019.7
20260504004138 5 229 0.0 0.0 0.00 0.00 0.00 76 1019.8
20260504003637 6 229 0.0 0.0 0.00 0.00 0.00 76 1019.9
20260504003139 6 229 0.0 0.0 0.00 0.00 0.00 76 1019.8
20260504002639 6 229 0.0 0.0 0.00 0.00 0.00 75 1020.0
20260504002138 6 229 0.0 0.0 0.00 0.00 0.00 75 1020.0
20260504001637 6 229 0.0 1.6 0.00 0.00 0.00 74 1019.9
20260504001139 6 229 0.0 1.6 0.00 0.00 0.00 74 1019.8
20260504000636 6 229 0.0 0.0 0.00 0.00 0.00 74 1019.7
20260504000136 6 229 0.0 0.0 0.00 0.00 0.00 73 1019.9
20260503235637 6 229 0.0 0.0 0.00 0.00 0.00 74 1019.7
20260503234636 6 229 0.0 0.0 0.00 0.00 0.00 74 1020.0
20260503234136 6 229 0.0 1.6 0.00 0.00 0.00 72 1019.9
20260503233638 6 229 0.0 1.6 0.00 0.00 0.00 72 1020.1
20260503233137 7 229 0.0 0.0 0.00 0.00 0.00 72 1020.1
20260503232636 7 229 0.0 1.6 0.00 0.00 0.00 72 1020.1
20260503231640 7 229 0.0 1.6 0.00 0.00 0.00 72 1020.0
20260503231137 7 229 0.0 1.6 0.00 0.00 0.00 71 1019.9
20260503230638 7 229 0.0 0.0 0.00 0.00 0.00 71 1020.1
20260503230138 7 229 0.0 0.0 0.00 0.00 0.00 71 1020.0
20260503225638 7 229 0.0 0.0 0.00 0.00 0.00 71 1020.1
20260503225139 7 229 0.0 0.0 0.00 0.00 0.00 71 1020.1
20260503224637 7 229 0.0 0.0 0.00 0.00 0.00 69 1020.2
20260503224138 7 229 0.0 0.0 0.00 0.00 0.00 68 1020.1
20260503223640 7 229 0.0 0.0 0.00 0.00 0.00 68 1020.3
20260503223138 7 229 0.0 0.0 0.00 0.00 0.00 68 1020.1
20260503222639 7 229 0.0 0.0 0.00 0.00 0.00 68 1020.1
20260503222139 7 229 0.0 0.0 0.00 0.00 0.00 68 1020.2
20260503221638 8 229 0.0 0.0 0.00 0.00 0.00 67 1020.2
20260503220624 8 229 0.0 0.0 0.00 0.00 0.00 66 1020.3
20260503220124 8 229 0.0 0.0 0.00 0.00 0.00 66 1020.2
20260503215625 8 229 0.0 0.0 0.00 0.00 0.00 66 1020.5
20260503215122 8 229 0.0 0.0 0.00 0.00 0.00 65 1020.4
20260503214124 8 229 0.0 0.0 0.00 0.00 0.00 65 1020.3
20260503213623 8 229 0.0 0.0 0.00 0.00 0.00 65 1020.2
20260503213124 8 229 0.0 0.0 0.00 0.00 0.00 65 1020.2
20260503212623 8 229 0.0 0.0 0.00 0.00 0.00 64 1020.3
20260503212124 9 229 0.0 0.0 0.00 0.00 0.00 63 1020.2
20260503211610 9 229 0.0 0.0 0.00 0.00 0.00 63 1020.3
20260503210612 9 229 0.0 0.0 0.00 0.00 0.00 63 1020.2
20260503210112 9 229 0.0 0.0 0.00 0.00 0.00 63 1020.2
20260503205610 10 229 0.0 0.0 0.00 0.00 0.00 62 1020.2
20260503205112 10 229 0.0 0.0 0.00 0.00 0.00 63 1020.1